SCP
0 0 0 0 0 0 0 0 0 0 0 0 0 0 0 -0 -0 -0 0 0 0 0 0 0 0 0 0 0 0 0 0 0 0 0 0 0 0 0 0 0 0 0 0 0 0
0 0 0 0 0 0 0 0 0 0 0 0 0 0 0 0 0 0 0 0 0 0 0 0 0 0 0 0 0 0 0 0 0 0 0 0 0 0 0 0 0 0 0 0 0
0 0 0 0 0 0 0 0 0 0 0 0 0 0 0 0 0 0 0 0 0 0 0 0 0 0 0 0 0 0 0 0 0 0 0 0 0 0 0 0 0 0 0 0 0
0 0 0 0 0 0 0 0 0 0 0 0 0 0 0 0 0 0 0 0 0 0 0 0 0 0 0 0 0 0 0 0 0 0 0 0 0 0 0 0 0 0 0 0 0
0 0 0 0 0 0 0 0 0 0 0 0 0 0 0 0 0 0 0 0 0 0 0 0 0 0 0 0 0 0 0 0 0 0 0 0 0 0 0 0 0 0 0 0 0
0 0 0 0 0 0 0 0 0 0 0 0 0 0 0 0 0 0 0 0 0 0 0 0 0 0 0 0 0 0 0 0 0 0 0 0 0 0 0 0 0 0 0 0 0
0 0 0 0 0 0 0 0 0 0 0 0 0 0 0 0 0 0 0 0 0 0 0 0 0 0 0 0 0 0 0 0 0 0 0 0 0 0 0 0 0 0 0 0 0
0 0 0 0 0 0 0 0 0 0 0 0 0 0 0 0 0 0 0 0 0 0 0 0 0 0 0 0 0 0 0 0 0 0 0 0 0 0 0 0 0 0 0 0 0
0 0 0 0 0 0 0 0 0 0 0 0 0 0 0 0 0 0 0 0 0 0 0 0 0 0 0 0 0 0 0 0 0 0 0 0 0 0 0 0 0 0 0 0 0
0 0 0 0 0 0 0 0 0 0 0 0 0 0 0 0 0 0 0 0 0 0 0 0 0 0 0 0 0 0 0 0 0 0 0 0 0 0 0 0 0 0 0 0 0
0 0 0 0 0 0 0 0 0 0 0 0 0 0 0 0 0 0 0 0 0 0 0 0 0 0 0 0 0 0 0 0 0 0 0 0 0 0 0 0 0 0 0 0 0
0 0 0 0 0 0 0 0 0 0 0 0 0 0 0 0 0 0 0 0 0 0 0 0 0 0 0 0 0 0 0 0 0 0 0 0 0 0 0 0 0 0 0 0 0
0 0 0 0 0 0 0 0 0 0 0 0 0 0 0 0 0 0 0 0 0 0 0 0 0 0 0 0 0 0 0 0 0 0 0 0 0 0 0 0 0 0 0 0 0
0 0 0 0 0 0 0 0 0 0 0 0 0 0 0 0 0 0 0 0 0 0 0 0 0 0 0 0 0 0 0 0 0 0 0 0 0 0 0 0 0 0 0 0 0
0 0 0 0 0 0 0 0 0 0 0 0 0 0 0 0 0 0 0 0 0 0 0 0 0 0 0 0 0 0 0 0 0 0 0 0 0 0 0 0 0 0 0 0 0
0 0 0 0 0 0 0 0 0 0 0 0 0 0 0 0 0 0 0 0 0 0 0 0 0 0 0 0 0 0 0 0 0 0 0 0 0 0 0 0 0 0 0 0 0
0 0 0 0 0 0 0 0 0 0 0 0 0 0 0 0 0 0 0 0 0 0 0 0 0 0 0 0 0 0 0 0 0 0 0 0 0 0 0 0 0 0 0 0 0
0 0 0 0 0 0 0 0 0 0 0 0 0 0 0 0 0 0 0 0 0 0 0 0 0 0 0 0 0 0 0 0 0 0 0 0 0 0 0 0 0 0 0 0 0
0 0 0 0 0 0 0 0 0 0 0 0 0 0 0 0 0 0 0 0 0 0 0 0 0 0 0 0 0 0 0 0 0 0 0 0 0 0 0 0 0 0 0 0 0
0 0 0 0 0 0 0 0 0 0 0 0 0 0 0 0 0 0 0 0 0 0 0 0 0 0 0 0 0 0 0 0 0 0 0 0 0 0 0 0 0 0 0 0 0
0 0 0 0 0 0 0 0 0 0 0 0 0 0 0 0 0 0 0 0 0 0 0 0 0 0 0 0 0 0 0 0 0 0 0 0 0 0 0 0 0 0 0 0 0
0 0 0 0 0 0 0 0 0 0 0 0 0 0 0 0 0 0 0 0 0 0 0 0 0 0 0 0 0 0 0 0 0 0 0 0 0 0 0 0 0 0 0 0 0
0 0 0 0 0 0 0 0 0 0 0 0 0 0 0 0 0 0 0 0 0 0 0 0 0 0 0 0 0 0 0 0 0 0 0 0 0 0 0 0 0 0 0 0 0
0 0 0 0 0 0 0 0 0 0 0 0 0 0 0 0 0 0 0 0 0 0 0 0 0 0 0 0 0 0 0 0 0 0 0 0 0 0 0 0 0 0 0 0 0
0 0 0 0 0 0 0 0 0 0 0 0 0 0 0 0 0 0 0 0 0 0 0 0 0 0 0 0 0 0 0 0 0 0 0 0 0 0 0 0 0 0 0 0 0
0 0 0 0 0 0 0 0 0 0 0 0 0 0 0 0 0 0 0 0 0 0 0 0 0 0 0 0 0 0 0 0 0 0 0 0 0 0 0 0 0 0 0 0 0
0 0 0 0 0 0 0 0 0 0 0 0 0 0 0 0 0 0 0 0 0 0 0 0 0 0 0 0 0 0 0 0 0 0 0 0 0 0 0 0 0 0 0 0 0
Wind_Speed_500mb
7 7 7 6 7 8 9 10 10 11 10 11 13 15 16 17 19 18 13 13 12 12 11 8 5 5 2 1 1 1 8 10 7 9 10 11 14 10 4 5 4 2 2 7 11
13 12 12 11 11 11 12 13 13 14 15 16 17 18 21 23 24 22 17 13 12 9 7 6 6 5 4 2 2 7 7 2 2 4 7 15 10 11 10 16 14 7 3 9 13
18 17 16 15 15 15 14 15 16 17 17 18 19 21 21 23 21 6 5 6 8 9 8 9 9 5 7 5 5 2 9 5 8 6 4 11 11 9 15 17 7 10 5 8 4
21 20 20 19 18 18 18 18 19 19 19 21 21 22 23 18 10 5 3 4 7 8 9 7 5 5 8 11 6 12 7 5 4 7 6 12 9 12 17 2 5 7 6 3 3
22 22 23 23 22 23 22 22 22 22 22 23 22 22 21 10 14 18 13 10 11 11 9 7 10 8 14 6 7 14 6 8 10 10 13 9 20 20 16 9 9 10 7 4 5
23 23 24 25 25 26 26 25 25 25 24 23 23 21 15 21 19 21 19 19 20 16 15 13 8 10 9 8 12 6 9 14 14 22 19 17 23 7 14 14 11 10 9 7 5
22 23 24 25 25 27 29 29 28 27 26 25 24 22 22 29 22 17 20 21 22 21 13 16 11 10 5 6 7 8 15 20 28 30 19 19 19 23 17 21 16 14 9 6 4
21 22 23 22 24 26 28 29 31 31 27 27 24 20 19 29 30 33 35 26 23 22 23 19 18 9 6 4 5 10 10 18 12 17 10 20 22 20 23 25 20 15 11 6 4
25 25 24 24 24 24 26 27 28 30 29 26 21 13 18 26 29 36 31 26 24 21 20 17 17 9 10 12 15 18 22 21 12 24 12 23 11 19 24 27 26 21 16 11 7
30 28 30 26 25 25 24 25 28 29 29 23 23 10 30 14 19 25 32 26 15 18 12 13 14 16 17 19 22 22 27 22 23 15 20 23 30 21 25 32 33 27 22 17 12
29 30 30 32 30 26 23 19 14 11 19 23 10 11 7 20 17 18 30 27 17 19 19 23 20 31 41 35 38 26 26 30 22 6 12 27 32 28 34 31 34 31 27 22 16
39 32 32 27 34 34 24 10 14 11 23 31 41 37 33 17 10 24 34 24 22 25 31 9 33 37 29 23 33 33 32 32 28 11 9 29 38 34 30 40 39 35 30 26 20
39 37 33 30 33 36 34 31 23 17 17 29 39 36 42 54 30 33 48 26 22 28 32 37 17 17 32 21 24 32 35 30 34 7 22 29 43 46 42 28 21 26 27 27 28
41 38 32 31 34 37 37 28 31 6 12 19 17 15 30 23 25 46 53 24 19 30 31 35 43 18 23 30 27 33 31 32 30 17 21 6 24 20 23 28 30 35 34 32 31
43 43 39 43 38 29 22 19 27 19 9 4 13 6 16 36 5 15 43 27 34 21 16 15 16 27 33 32 30 19 3 16 22 27 32 37 19 14 7 26 38 42 41 38 35
47 46 42 44 59 47 32 21 10 6 16 7 9 13 13 32 4 6 20 19 13 31 33 31 7 17 18 3 23 19 14 6 5 14 24 32 31 26 22 23 28 42 47 47 44
47 50 53 56 53 51 43 33 10 11 5 14 10 15 27 22 17 16 25 27 26 18 40 36 37 12 12 13 6 25 16 8 10 12 18 4 25 32 13 10 23 47 56 56 54
47 49 60 60 59 52 46 11 16 20 33 8 9 13 20 18 16 20 17 30 43 36 21 29 20 47 35 49 27 41 36 15 13 13 10 3 18 12 9 12 15 46 55 56 54
25 37 52 60 55 55 33 19 10 18 14 14 12 15 20 18 11 25 30 29 29 48 25 21 25 8 20 32 41 24 33 18 5 3 8 14 22 6 12 13 28 49 58 59 59
35 43 58 62 58 54 21 32 17 26 2 20 30 28 28 27 25 23 22 19 41 38 45 11 18 9 11 8 21 22 22 12 8 12 14 17 23 19 21 27 31 44 60 65 62
38 18 19 55 49 31 22 22 15 38 27 18 27 29 35 22 32 21 18 17 27 16 40 22 17 7 12 27 34 17 25 18 13 17 6 7 11 8 20 36 42 45 64 70 70
28 13 23 44 31 15 32 27 8 16 46 16 8 21 30 31 24 23 28 33 23 22 25 38 8 20 27 5 22 42 28 41 12 13 12 7 15 8 7 24 41 49 58 62 66
17 23 31 55 20 29 35 30 44 23 16 17 21 20 21 14 13 20 23 15 29 25 25 22 10 7 3 9 8 19 35 33 36 2 23 13 12 2 7 15 35 44 55 61 65
14 7 25 29 30 39 31 36 39 36 37 34 15 25 24 28 23 11 21 15 28 36 40 34 11 15 26 4 14 18 35 42 36 19 40 35 23 9 14 20 32 42 53 63 70
17 10 6 8 34 29 19 3 15 13 34 45 15 38 27 15 32 35 43 12 8 16 13 23 16 24 46 11 5 9 23 41 48 60 30 52 40 25 25 27 43 44 47 60 71
9 6 14 10 6 19 38 35 36 16 8 10 19 13 34 40 28 15 32 20 15 13 18 10 13 21 35 34 20 15 26 32 52 55 54 54 38 6 35 32 37 47 53 64 72
28 24 7 8 9 8 7 20 16 21 10 13 20 23 27 21 13 13 6 11 3 14 26 18 15 13 16 11 7 12 49 35 42 50 38 47 41 9 5 14 26 39 53 67 76
Wind_Direction_500mb
229 230 241 232 259 277 286 292 296 300 302 308 312 316 318 316 313 310 302 271 258 253 244 242 228 244 83 22 106 176 244 226 199 201 209 165 194 173 200 232 166 145 122 221 257
242 244 247 258 254 260 276 285 291 297 306 310 314 318 322 322 319 309 288 264 250 233 204 192 212 191 197 178 230 256 258 221 360 201 218 174 220 180 219 204 194 166 212 252 259
258 257 256 256 262 268 267 273 284 294 300 304 309 315 320 327 327 265 282 235 195 168 157 167 174 187 220 212 205 217 269 105 185 197 235 204 222 220 245 244 285 233 175 311 273
265 266 267 268 269 270 274 277 283 288 293 299 305 310 316 328 318 311 275 198 177 165 148 158 202 239 261 238 202 250 241 236 181 207 207 225 254 236 238 249 166 212 235 251 164
266 270 274 273 274 277 277 279 281 286 290 294 300 307 316 291 264 276 257 233 219 204 190 215 242 257 255 256 231 242 221 220 215 209 225 258 247 258 226 201 215 231 224 177 163
262 266 270 276 278 278 279 280 281 283 286 290 295 300 302 265 261 266 252 240 234 229 235 226 259 240 282 251 250 2 272 251 228 229 232 231 248 217 200 191 186 168 152 164 182
266 265 266 272 275 278 281 282 281 282 286 288 291 294 279 261 258 257 247 236 231 226 229 223 221 208 200 228 233 275 277 257 241 233 235 216 239 229 162 167 170 172 169 180 214
264 267 269 270 275 276 278 280 282 282 282 283 286 289 261 257 255 248 240 234 228 227 224 225 210 194 236 158 212 254 255 262 106 172 190 195 263 155 176 181 191 191 192 187 248
264 266 267 271 274 278 283 285 283 282 281 281 283 266 263 257 244 238 226 224 223 223 218 207 181 209 171 224 247 214 263 232 256 199 156 203 249 163 184 198 206 208 207 202 195
263 271 272 271 274 279 282 288 290 286 273 275 254 261 243 247 240 224 218 210 183 175 159 183 200 221 222 211 235 249 226 252 251 174 217 212 249 164 195 210 216 211 208 204 198
255 264 281 273 276 275 285 300 311 275 237 215 207 212 265 231 217 208 197 182 163 192 207 203 216 219 225 224 251 281 283 263 257 154 259 240 252 249 198 211 217 214 210 205 195
257 259 267 273 268 274 272 249 258 282 292 259 245 241 241 236 203 207 182 180 194 209 206 183 229 238 243 270 239 247 259 258 260 233 243 265 263 256 218 218 221 220 214 203 188
257 255 255 259 276 259 260 258 263 292 266 261 234 230 226 228 222 209 185 194 213 219 201 225 232 220 223 229 226 236 243 254 260 266 243 274 269 255 239 214 221 223 212 198 188
250 248 248 248 245 249 255 265 239 230 275 251 205 228 206 189 232 225 206 188 206 225 211 248 249 207 204 227 216 246 236 248 262 258 262 171 286 281 199 210 216 208 197 189 180
253 245 238 235 239 233 256 293 237 181 252 355 125 185 165 185 90 180 197 215 227 197 180 224 190 200 218 218 201 249 85 220 238 255 274 256 264 276 170 215 211 201 193 186 180
252 242 236 239 239 243 247 241 185 179 238 202 138 166 158 200 171 110 182 209 237 244 226 266 5 222 224 125 196 129 111 110 235 260 256 240 234 265 205 230 200 190 188 177 171
255 241 229 227 237 239 230 213 194 197 202 177 184 187 203 186 203 194 185 196 199 197 231 231 228 195 181 145 152 199 179 232 238 209 255 235 221 251 180 185 190 182 183 178 171
251 239 229 226 238 244 231 220 231 212 219 99 159 170 196 182 220 200 196 219 218 228 280 218 232 201 195 215 201 201 196 198 237 215 249 67 232 235 42 105 176 180 180 177 173
255 239 232 229 230 232 201 233 225 228 184 178 151 198 200 207 251 202 224 227 221 214 214 214 239 259 182 218 212 190 222 231 18 180 283 219 241 197 164 168 168 170 175 180 177
232 237 240 228 218 228 208 240 224 222 220 184 219 201 212 199 187 194 204 222 227 214 219 265 266 177 166 184 239 208 156 166 196 215 233 244 251 232 204 192 180 179 182 181 180
221 233 247 224 205 214 232 231 234 229 208 216 235 246 236 218 206 191 238 238 204 216 197 230 243 132 153 205 187 179 202 217 207 227 248 273 239 141 204 190 187 187 186 183 181
215 223 216 191 194 216 230 238 188 203 222 212 238 259 246 219 213 211 225 231 171 148 191 212 223 226 212 118 248 219 209 205 206 188 231 288 257 122 97 178 186 189 186 186 185
226 223 203 196 215 218 232 245 231 219 202 185 208 207 212 220 214 216 225 255 169 173 185 168 202 182 237 229 211 225 219 222 227 326 224 200 247 93 143 173 183 185 186 187 185
226 224 210 219 232 223 229 230 238 225 226 213 212 210 226 232 206 213 234 221 198 198 169 165 186 225 227 157 147 202 207 209 214 225 238 234 245 195 207 183 178 185 186 186 187
220 217 222 220 237 248 234 141 223 215 215 203 209 204 202 220 232 228 233 185 197 208 172 176 220 210 246 252 80 277 228 208 210 226 216 247 235 224 203 195 192 184 183 187 191
229 229 217 293 230 240 222 240 229 219 168 260 225 181 234 237 224 210 221 206 202 174 182 191 226 218 244 245 227 233 247 230 221 230 233 244 248 54 187 189 174 181 186 193 196
230 233 233 216 224 208 225 226 227 222 231 256 274 242 226 241 216 169 94 11 82 178 191 180 205 186 239 210 149 251 229 228 230 227 233 235 242 119 119 174 199 189 194 200 203
Wind_Speed_850mb
7 7 7 6 7 8 9 10 10 11 10 11 13 15 16 17 19 18 13 13 12 12 11 8 5 5 2 1 1 1 8 10 7 9 10 11 14 10 4 5 4 2 2 7 11
13 12 12 11 11 11 12 13 13 14 15 16 17 18 21 23 24 22 17 13 12 9 7 6 6 5 4 2 2 7 7 2 2 4 7 15 10 11 10 16 14 7 3 9 13
18 17 16 15 15 15 14 15 16 17 17 18 19 21 21 23 21 6 5 6 8 9 8 9 9 5 7 5 5 2 9 5 8 6 4 11 11 9 15 17 7 10 5 8 4
21 20 20 19 18 18 18 18 19 19 19 21 21 22 23 18 10 5 3 4 7 8 9 7 5 5 8 11 6 12 7 5 4 7 6 12 9 12 17 2 5 7 6 3 3
22 22 23 23 22 23 22 22 22 22 22 23 22 22 21 10 14 18 13 10 11 11 9 7 10 8 14 6 7 14 6 8 10 10 13 9 20 20 16 9 9 10 7 4 5
23 23 24 25 25 26 26 25 25 25 24 23 23 21 15 21 19 21 19 19 20 16 15 13 8 10 9 8 12 6 9 14 14 22 19 17 23 7 14 14 11 10 9 7 5
22 23 24 25 25 27 29 29 28 27 26 25 24 22 22 29 22 17 20 21 22 21 13 16 11 10 5 6 7 8 15 20 28 30 19 19 19 23 17 21 16 14 9 6 4
21 22 23 22 24 26 28 29 31 31 27 27 24 20 19 29 30 33 35 26 23 22 23 19 18 9 6 4 5 10 10 18 12 17 10 20 22 20 23 25 20 15 11 6 4
25 25 24 24 24 24 26 27 28 30 29 26 21 13 18 26 29 36 31 26 24 21 20 17 17 9 10 12 15 18 22 21 12 24 12 23 11 19 24 27 26 21 16 11 7
30 28 30 26 25 25 24 25 28 29 29 23 23 10 30 14 19 25 32 26 15 18 12 13 14 16 17 19 22 22 27 22 23 15 20 23 30 21 25 32 33 27 22 17 12
29 30 30 32 30 26 23 19 14 11 19 23 10 11 7 20 17 18 30 27 17 19 19 23 20 31 41 35 38 26 26 30 22 6 12 27 32 28 34 31 34 31 27 22 16
39 32 32 27 34 34 24 10 14 11 23 31 41 37 33 17 10 24 34 24 22 25 31 9 33 37 29 23 33 33 32 32 28 11 9 29 38 34 30 40 39 35 30 26 20
39 37 33 30 33 36 34 31 23 17 17 29 39 36 42 54 30 33 48 26 22 28 32 37 17 17 32 21 24 32 35 30 34 7 22 29 43 46 42 28 21 26 27 27 28
41 38 32 31 34 37 37 28 31 6 12 19 17 15 30 23 25 46 53 24 19 30 31 35 43 18 23 30 27 33 31 32 30 17 21 6 24 20 23 28 30 35 34 32 31
43 43 39 43 38 29 22 19 27 19 9 4 13 6 16 36 5 15 43 27 34 21 16 15 16 27 33 32 30 19 3 16 22 27 32 37 19 14 7 26 38 42 41 38 35
47 46 42 44 59 47 32 21 10 6 16 7 9 13 13 32 4 6 20 19 13 31 33 31 7 17 18 3 23 19 14 6 5 14 24 32 31 26 22 23 28 42 47 47 44
47 50 53 56 53 51 43 33 10 11 5 14 10 15 27 22 17 16 25 27 26 18 40 36 37 12 12 13 6 25 16 8 10 12 18 4 25 32 13 10 23 47 56 56 54
47 49 60 60 59 52 46 11 16 20 33 8 9 13 20 18 16 20 17 30 43 36 21 29 20 47 35 49 27 41 36 15 13 13 10 3 18 12 9 12 15 46 55 56 54
25 37 52 60 55 55 33 19 10 18 14 14 12 15 20 18 11 25 30 29 29 48 25 21 25 8 20 32 41 24 33 18 5 3 8 14 22 6 12 13 28 49 58 59 59
35 43 58 62 58 54 21 32 17 26 2 20 30 28 28 27 25 23 22 19 41 38 45 11 18 9 11 8 21 22 22 12 8 12 14 17 23 19 21 27 31 44 60 65 62
38 18 19 55 49 31 22 22 15 38 27 18 27 29 35 22 32 21 18 17 27 16 40 22 17 7 12 27 34 17 25 18 13 17 6 7 11 8 20 36 42 45 64 70 70
28 13 23 44 31 15 32 27 8 16 46 16 8 21 30 31 24 23 28 33 23 22 25 38 8 20 27 5 22 42 28 41 12 13 12 7 15 8 7 24 41 49 58 62 66
17 23 31 55 20 29 35 30 44 23 16 17 21 20 21 14 13 20 23 15 29 25 25 22 10 7 3 9 8 19 35 33 36 2 23 13 12 2 7 15 35 44 55 61 65
14 7 25 29 30 39 31 36 39 36 37 34 15 25 24 28 23 11 21 15 28 36 40 34 11 15 26 4 14 18 35 42 36 19 40 35 23 9 14 20 32 42 53 63 70
17 10 6 8 34 29 19 3 15 13 34 45 15 38 27 15 32 35 43 12 8 16 13 23 16 24 46 11 5 9 23 41 48 60 30 52 40 25 25 27 43 44 47 60 71
9 6 14 10 6 19 38 35 36 16 8 10 19 13 34 40 28 15 32 20 15 13 18 10 13 21 35 34 20 15 26 32 52 55 54 54 38 6 35 32 37 47 53 64 72
28 24 7 8 9 8 7 20 16 21 10 13 20 23 27 21 13 13 6 11 3 14 26 18 15 13 16 11 7 12 49 35 42 50 38 47 41 9 5 14 26 39 53 67 76
Wind_Direction_850mb
229 230 241 232 259 277 286 292 296 300 302 308 312 316 318 316 313 310 302 271 258 253 244 242 228 244 83 22 106 176 244 226 199 201 209 165 194 173 200 232 166 145 122 221 257
242 244 247 258 254 260 276 285 291 297 306 310 314 318 322 322 319 309 288 264 250 233 204 192 212 191 197 178 230 256 258 221 360 201 218 174 220 180 219 204 194 166 212 252 259
258 257 256 256 262 268 267 273 284 294 300 304 309 315 320 327 327 265 282 235 195 168 157 167 174 187 220 212 205 217 269 105 185 197 235 204 222 220 245 244 285 233 175 311 273
265 266 267 268 269 270 274 277 283 288 293 299 305 310 316 328 318 311 275 198 177 165 148 158 202 239 261 238 202 250 241 236 181 207 207 225 254 236 238 249 166 212 235 251 164
266 270 274 273 274 277 277 279 281 286 290 294 300 307 316 291 264 276 257 233 219 204 190 215 242 257 255 256 231 242 221 220 215 209 225 258 247 258 226 201 215 231 224 177 163
262 266 270 276 278 278 279 280 281 283 286 290 295 300 302 265 261 266 252 240 234 229 235 226 259 240 282 251 250 2 272 251 228 229 232 231 248 217 200 191 186 168 152 164 182
266 265 266 272 275 278 281 282 281 282 286 288 291 294 279 261 258 257 247 236 231 226 229 223 221 208 200 228 233 275 277 257 241 233 235 216 239 229 162 167 170 172 169 180 214
264 267 269 270 275 276 278 280 282 282 282 283 286 289 261 257 255 248 240 234 228 227 224 225 210 194 236 158 212 254 255 262 106 172 190 195 263 155 176 181 191 191 192 187 248
264 266 267 271 274 278 283 285 283 282 281 281 283 266 263 257 244 238 226 224 223 223 218 207 181 209 171 224 247 214 263 232 256 199 156 203 249 163 184 198 206 208 207 202 195
263 271 272 271 274 279 282 288 290 286 273 275 254 261 243 247 240 224 218 210 183 175 159 183 200 221 222 211 235 249 226 252 251 174 217 212 249 164 195 210 216 211 208 204 198
255 264 281 273 276 275 285 300 311 275 237 215 207 212 265 231 217 208 197 182 163 192 207 203 216 219 225 224 251 281 283 263 257 154 259 240 252 249 198 211 217 214 210 205 195
257 259 267 273 268 274 272 249 258 282 292 259 245 241 241 236 203 207 182 180 194 209 206 183 229 238 243 270 239 247 259 258 260 233 243 265 263 256 218 218 221 220 214 203 188
257 255 255 259 276 259 260 258 263 292 266 261 234 230 226 228 222 209 185 194 213 219 201 225 232 220 223 229 226 236 243 254 260 266 243 274 269 255 239 214 221 223 212 198 188
250 248 248 248 245 249 255 265 239 230 275 251 205 228 206 189 232 225 206 188 206 225 211 248 249 207 204 227 216 246 236 248 262 258 262 171 286 281 199 210 216 208 197 189 180
253 245 238 235 239 233 256 293 237 181 252 355 125 185 165 185 90 180 197 215 227 197 180 224 190 200 218 218 201 249 85 220 238 255 274 256 264 276 170 215 211 201 193 186 180
252 242 236 239 239 243 247 241 185 179 238 202 138 166 158 200 171 110 182 209 237 244 226 266 5 222 224 125 196 129 111 110 235 260 256 240 234 265 205 230 200 190 188 177 171
255 241 229 227 237 239 230 213 194 197 202 177 184 187 203 186 203 194 185 196 199 197 231 231 228 195 181 145 152 199 179 232 238 209 255 235 221 251 180 185 190 182 183 178 171
251 239 229 226 238 244 231 220 231 212 219 99 159 170 196 182 220 200 196 219 218 228 280 218 232 201 195 215 201 201 196 198 237 215 249 67 232 235 42 105 176 180 180 177 173
255 239 232 229 230 232 201 233 225 228 184 178 151 198 200 207 251 202 224 227 221 214 214 214 239 259 182 218 212 190 222 231 18 180 283 219 241 197 164 168 168 170 175 180 177
232 237 240 228 218 228 208 240 224 222 220 184 219 201 212 199 187 194 204 222 227 214 219 265 266 177 166 184 239 208 156 166 196 215 233 244 251 232 204 192 180 179 182 181 180
221 233 247 224 205 214 232 231 234 229 208 216 235 246 236 218 206 191 238 238 204 216 197 230 243 132 153 205 187 179 202 217 207 227 248 273 239 141 204 190 187 187 186 183 181
215 223 216 191 194 216 230 238 188 203 222 212 238 259 246 219 213 211 225 231 171 148 191 212 223 226 212 118 248 219 209 205 206 188 231 288 257 122 97 178 186 189 186 186 185
226 223 203 196 215 218 232 245 231 219 202 185 208 207 212 220 214 216 225 255 169 173 185 168 202 182 237 229 211 225 219 222 227 326 224 200 247 93 143 173 183 185 186 187 185
226 224 210 219 232 223 229 230 238 225 226 213 212 210 226 232 206 213 234 221 198 198 169 165 186 225 227 157 147 202 207 209 214 225 238 234 245 195 207 183 178 185 186 186 187
220 217 222 220 237 248 234 141 223 215 215 203 209 204 202 220 232 228 233 185 197 208 172 176 220 210 246 252 80 277 228 208 210 226 216 247 235 224 203 195 192 184 183 187 191
229 229 217 293 230 240 222 240 229 219 168 260 225 181 234 237 224 210 221 206 202 174 182 191 226 218 244 245 227 233 247 230 221 230 233 244 248 54 187 189 174 181 186 193 196
230 233 233 216 224 208 225 226 227 222 231 256 274 242 226 241 216 169 94 11 82 178 191 180 205 186 239 210 149 251 229 228 230 227 233 235 242 119 119 174 199 189 194 200 203